Time,TemperatureF,DewpointF,PressureIn,WindDirection,WindDirectionDegrees,WindSpeedMPH,WindSpeedGustMPH,Humidity,HourlyPrecipIn,Conditions,Clouds,dailyrainin,SoftwareType,DateUTC
2013-06-24 00:08:00,55.4,55.0,29.82,SW,233,0.0,-999.0,99,-99.99,,,0.00,weatherlink.com 1.10,2013-06-24 07:08:00,
2013-06-24 00:23:00,55.4,55.0,29.81,SW,233,0.0,-999.0,99,-99.99,,,0.00,weatherlink.com 1.10,2013-06-24 07:23:00,
2013-06-24 00:38:00,55.3,55.0,29.80,SW,233,0.0,-999.0,99,-99.99,,,0.00,weatherlink.com 1.10,2013-06-24 07:38:00,
2013-06-24 00:53:00,55.3,55.0,29.80,SW,233,0.0,-999.0,99,-99.99,,,0.00,weatherlink.com 1.10,2013-06-24 07:53:00,
2013-06-24 01:08:00,55.3,55.0,29.80,SW,233,0.0,-999.0,98,-99.99,,,0.00,weatherlink.com 1.10,2013-06-24 08:08:00,
2013-06-24 01:23:00,55.1,55.0,29.80,SW,234,0.0,-999.0,98,-99.99,,,0.00,weatherlink.com 1.10,2013-06-24 08:23:00,
2013-06-24 01:38:00,55.1,54.0,29.80,SW,233,0.0,-999.0,97,-99.99,,,0.00,weatherlink.com 1.10,2013-06-24 08:38:00,
2013-06-24 01:53:00,55.1,54.0,29.80,SW,234,0.0,-999.0,96,-99.99,,,0.00,weatherlink.com 1.10,2013-06-24 08:53:00,
2013-06-24 02:08:00,55.1,54.0,29.80,WSW,239,0.0,-999.0,96,-99.99,,,0.00,weatherlink.com 1.10,2013-06-24 09:08:00,
2013-06-24 02:23:00,54.8,54.0,29.79,WSW,239,0.0,-999.0,96,-99.99,,,0.00,weatherlink.com 1.10,2013-06-24 09:23:00,
2013-06-24 02:38:00,54.7,54.0,29.79,WSW,239,0.0,-999.0,96,-99.99,,,0.00,weatherlink.com 1.10,2013-06-24 09:38:00,
2013-06-24 03:08:00,54.7,54.0,29.79,WSW,239,0.0,-999.0,96,-99.99,,,0.00,weatherlink.com 1.10,2013-06-24 10:08:00,
2013-06-24 03:23:00,54.8,54.0,29.79,WSW,239,0.0,-999.0,96,-99.99,,,0.00,weatherlink.com 1.10,2013-06-24 10:23:00,
2013-06-24 03:38:00,54.8,54.0,29.79,WSW,239,0.0,-999.0,96,-99.99,,,0.00,weatherlink.com 1.10,2013-06-24 10:38:00,
2013-06-24 03:53:00,55.0,54.0,29.78,WSW,240,0.0,-999.0,96,-99.99,,,0.00,weatherlink.com 1.10,2013-06-24 10:53:00,
2013-06-24 04:08:00,55.0,54.0,29.79,WSW,240,0.0,-999.0,96,-99.99,,,0.00,weatherlink.com 1.10,2013-06-24 11:08:00,
2013-06-24 04:24:00,55.0,54.0,29.79,WSW,240,0.0,-999.0,96,-99.99,,,0.00,weatherlink.com 1.10,2013-06-24 11:24:00,
2013-06-24 04:54:00,54.7,54.0,29.80,WSW,240,0.0,-999.0,96,-99.99,,,0.00,weatherlink.com 1.10,2013-06-24 11:54:00,
2013-06-24 05:09:00,54.5,53.0,29.80,WSW,240,0.0,-999.0,96,-99.99,,,0.00,weatherlink.com 1.10,2013-06-24 12:09:00,
2013-06-24 05:24:00,54.2,54.0,29.80,WSW,240,0.0,-999.0,98,-99.99,,,0.00,weatherlink.com 1.10,2013-06-24 12:24:00,
2013-06-24 05:39:00,54.2,54.0,29.80,WSW,240,0.0,-999.0,99,-99.99,,,0.00,weatherlink.com 1.10,2013-06-24 12:39:00,
2013-06-24 05:54:00,54.1,54.0,29.80,WSW,240,0.0,-999.0,99,-99.99,,,0.00,weatherlink.com 1.10,2013-06-24 12:54:00,
2013-06-24 06:09:00,54.2,54.0,29.80,WSW,240,0.0,-999.0,99,-99.99,,,0.00,weatherlink.com 1.10,2013-06-24 13:09:00,
2013-06-24 06:24:00,54.4,54.0,29.81,WSW,240,0.0,-999.0,99,-99.99,,,0.00,weatherlink.com 1.10,2013-06-24 13:24:00,
2013-06-24 06:39:00,54.5,54.0,29.81,WSW,240,0.0,-999.0,99,-99.99,,,0.00,weatherlink.com 1.10,2013-06-24 13:39:00,
2013-06-24 06:54:00,54.8,55.0,29.82,WSW,240,0.0,-999.0,100,-99.99,,,0.00,weatherlink.com 1.10,2013-06-24 13:54:00,
2013-06-24 07:09:00,55.1,55.0,29.82,West,264,0.0,-999.0,100,-99.99,,,0.00,weatherlink.com 1.10,2013-06-24 14:09:00,
2013-06-24 07:24:00,55.4,55.0,29.82,West,264,0.0,-999.0,100,-99.99,,,0.00,weatherlink.com 1.10,2013-06-24 14:24:00,
2013-06-24 07:39:00,55.8,56.0,29.82,West,263,0.0,-999.0,100,-99.99,,,0.00,weatherlink.com 1.10,2013-06-24 14:39:00,
2013-06-24 08:09:00,56.4,56.0,29.82,WSW,244,0.0,-999.0,99,-99.99,,,0.00,weatherlink.com 1.10,2013-06-24 15:09:00,
2013-06-24 08:24:00,56.9,56.0,29.83,WSW,244,0.0,-999.0,96,-99.99,,,0.00,weatherlink.com 1.10,2013-06-24 15:24:00,
2013-06-24 08:54:00,57.5,56.0,29.83,WSW,244,0.0,-999.0,93,-99.99,,,0.00,weatherlink.com 1.10,2013-06-24 15:54:00,
2013-06-24 09:09:00,57.7,55.0,29.83,WSW,244,0.0,-999.0,92,-99.99,,,0.00,weatherlink.com 1.10,2013-06-24 16:09:00,
2013-06-24 09:39:00,58.7,55.0,29.85,SW,234,0.0,-999.0,88,-99.99,,,0.00,weatherlink.com 1.10,2013-06-24 16:39:00,
2013-06-24 10:24:00,59.0,54.0,29.86,SW,232,0.0,-999.0,84,-99.99,,,0.00,weatherlink.com 1.10,2013-06-24 17:24:00,
2013-06-24 10:39:00,59.3,55.0,29.86,SW,233,0.0,-999.0,85,-99.99,,,0.00,weatherlink.com 1.10,2013-06-24 17:39:00,
2013-06-24 10:54:00,59.3,56.0,29.86,SW,233,0.0,-999.0,87,-99.99,,,0.00,weatherlink.com 1.10,2013-06-24 17:54:00,
2013-06-24 11:09:00,59.3,56.0,29.87,SW,234,0.0,-999.0,87,-99.99,,,0.00,weatherlink.com 1.10,2013-06-24 18:09:00,
2013-06-24 11:24:00,59.5,56.0,29.86,SW,233,0.0,-999.0,88,-99.99,,,0.00,weatherlink.com 1.10,2013-06-24 18:24:00,
2013-06-24 11:39:00,59.2,56.0,29.87,SW,234,0.0,-999.0,88,-99.99,,,0.01,weatherlink.com 1.10,2013-06-24 18:39:00,
2013-06-24 12:09:00,60.3,56.0,29.88,SW,233,0.0,-999.0,85,-99.99,,,0.01,weatherlink.com 1.10,2013-06-24 19:09:00,
2013-06-24 12:24:00,60.0,56.0,29.88,SW,233,0.0,-999.0,85,-99.99,,,0.01,weatherlink.com 1.10,2013-06-24 19:24:00,
2013-06-24 12:39:00,59.5,56.0,29.88,SW,234,0.0,-999.0,87,-99.99,,,0.01,weatherlink.com 1.10,2013-06-24 19:39:00,
2013-06-24 12:54:00,59.0,56.0,29.88,SW,234,0.0,-999.0,89,-99.99,,,0.02,weatherlink.com 1.10,2013-06-24 19:54:00,
2013-06-24 13:24:00,59.3,57.0,29.88,SW,234,0.0,-999.0,92,-99.99,,,0.02,weatherlink.com 1.10,2013-06-24 20:24:00,
2013-06-24 13:39:00,59.7,57.0,29.88,SW,233,0.0,-999.0,92,-99.99,,,0.02,weatherlink.com 1.10,2013-06-24 20:39:00,
2013-06-24 13:54:00,59.7,57.0,29.88,SW,233,0.0,-999.0,90,-99.99,,,0.02,weatherlink.com 1.10,2013-06-24 20:54:00,
2013-06-24 14:09:00,60.0,57.0,29.88,SW,233,0.0,-999.0,89,-99.99,,,0.02,weatherlink.com 1.10,2013-06-24 21:09:00,
2013-06-24 14:24:00,60.6,57.0,29.88,SW,233,0.0,-999.0,89,-99.99,,,0.02,weatherlink.com 1.10,2013-06-24 21:24:00,
2013-06-24 14:39:00,60.6,57.0,29.88,SW,232,0.0,-999.0,87,-99.99,,,0.03,weatherlink.com 1.10,2013-06-24 21:39:00,
2013-06-24 14:54:00,60.6,57.0,29.88,SW,233,0.0,-999.0,87,-99.99,,,0.03,weatherlink.com 1.10,2013-06-24 21:54:00,
2013-06-24 15:09:00,60.1,57.0,29.88,SW,232,0.0,-999.0,88,-99.99,,,0.03,weatherlink.com 1.10,2013-06-24 22:09:00,
2013-06-24 15:24:00,60.1,57.0,29.88,SW,232,0.0,-999.0,88,-99.99,,,0.03,weatherlink.com 1.10,2013-06-24 22:24:00,
2013-06-24 15:39:00,60.6,56.0,29.88,SW,232,0.0,-999.0,86,-99.99,,,0.03,weatherlink.com 1.10,2013-06-24 22:39:00,
2013-06-24 15:54:00,59.5,55.0,29.88,SW,232,0.0,-999.0,86,-99.99,,,0.03,weatherlink.com 1.10,2013-06-24 22:54:00,
2013-06-24 16:09:00,58.7,56.0,29.89,SW,232,0.0,-999.0,92,-99.99,,,0.05,weatherlink.com 1.10,2013-06-24 23:09:00,
2013-06-24 16:39:00,58.9,57.0,29.88,SW,232,0.0,-999.0,94,-99.99,,,0.05,weatherlink.com 1.10,2013-06-24 23:39:00,
2013-06-24 17:09:00,58.4,57.0,29.88,SW,232,0.0,-999.0,94,-99.99,,,0.05,weatherlink.com 1.10,2013-06-25 00:09:00,
2013-06-24 17:24:00,58.1,57.0,29.88,SW,232,0.0,-999.0,95,-99.99,,,0.05,weatherlink.com 1.10,2013-06-25 00:24:00,
2013-06-24 17:39:00,58.1,57.0,29.89,SW,232,0.0,-999.0,97,-99.99,,,0.05,weatherlink.com 1.10,2013-06-25 00:39:00,
2013-06-24 17:54:00,58.4,58.0,29.88,SW,232,0.0,-999.0,98,-99.99,,,0.05,weatherlink.com 1.10,2013-06-25 00:54:00,
2013-06-24 18:09:00,58.1,57.0,29.88,SW,232,0.0,-999.0,96,-99.99,,,0.05,weatherlink.com 1.10,2013-06-25 01:09:00,
2013-06-24 18:39:00,58.1,57.0,29.88,SW,232,0.0,-999.0,96,-99.99,,,0.06,weatherlink.com 1.10,2013-06-25 01:39:00,
2013-06-24 18:54:00,58.0,58.0,29.88,SW,232,0.0,-999.0,98,-99.99,,,0.06,weatherlink.com 1.10,2013-06-25 01:54:00,
2013-06-24 19:09:00,57.8,58.0,29.88,SW,232,0.0,-999.0,99,-99.99,,,0.06,weatherlink.com 1.10,2013-06-25 02:09:00,
2013-06-24 19:24:00,57.7,58.0,29.88,SW,232,0.0,-999.0,99,-99.99,,,0.07,weatherlink.com 1.10,2013-06-25 02:24:00,
2013-06-24 19:54:00,57.2,57.0,29.88,SW,232,0.0,-999.0,99,-99.99,,,0.08,weatherlink.com 1.10,2013-06-25 02:54:00,
2013-06-24 20:09:00,57.2,57.0,29.88,SW,232,0.0,-999.0,99,-99.99,,,0.09,weatherlink.com 1.10,2013-06-25 03:09:00,
2013-06-24 20:24:00,57.1,57.0,29.88,SW,232,0.0,-999.0,99,-99.99,,,0.10,weatherlink.com 1.10,2013-06-25 03:24:00,
2013-06-24 20:39:00,57.1,57.0,29.88,SW,232,0.0,-999.0,99,-99.99,,,0.12,weatherlink.com 1.10,2013-06-25 03:39:00,
2013-06-24 20:54:00,56.9,57.0,29.88,SW,232,0.0,-999.0,100,-99.99,,,0.14,weatherlink.com 1.10,2013-06-25 03:54:00,
2013-06-24 21:09:00,57.1,57.0,29.88,SW,232,0.0,-999.0,100,-99.99,,,0.15,weatherlink.com 1.10,2013-06-25 04:09:00,
2013-06-24 21:24:00,56.9,57.0,29.88,WNW,289,0.0,-999.0,100,-99.99,,,0.16,weatherlink.com 1.10,2013-06-25 04:24:00,
2013-06-24 21:39:00,56.8,57.0,29.88,WNW,289,0.0,-999.0,100,-99.99,,,0.16,weatherlink.com 1.10,2013-06-25 04:39:00,
2013-06-24 21:54:00,56.9,57.0,29.88,WNW,295,0.0,-999.0,100,-99.99,,,0.17,weatherlink.com 1.10,2013-06-25 04:54:00,
2013-06-24 22:09:00,57.1,57.0,29.89,West,278,0.0,-999.0,100,-99.99,,,0.18,weatherlink.com 1.10,2013-06-25 05:09:00,
2013-06-24 22:24:00,56.9,57.0,29.89,WNW,302,0.0,-999.0,100,-99.99,,,0.18,weatherlink.com 1.10,2013-06-25 05:24:00,
2013-06-24 22:39:00,56.8,57.0,29.89,NW,311,0.0,-999.0,100,-99.99,,,0.18,weatherlink.com 1.10,2013-06-25 05:39:00,
2013-06-24 22:54:00,56.9,57.0,29.89,NNW,340,0.0,-999.0,100,-99.99,,,0.19,weatherlink.com 1.10,2013-06-25 05:54:00,
2013-06-24 23:09:00,56.9,57.0,29.89,North,351,0.0,-999.0,100,-99.99,,,0.19,weatherlink.com 1.10,2013-06-25 06:09:00,
2013-06-24 23:24:00,57.1,57.0,29.88,North,355,0.0,-999.0,100,-99.99,,,0.20,weatherlink.com 1.10,2013-06-25 06:24:00,
2013-06-24 23:39:00,57.2,57.0,29.88,North,355,0.0,-999.0,100,-99.99,,,0.20,weatherlink.com 1.10,2013-06-25 06:39:00,
2013-06-24 23:55:00,57.2,57.0,29.88,North,355,0.0,-999.0,100,-99.99,,,0.21,weatherlink.com 1.10,2013-06-25 06:55:00,